Stations météo

réclame
Mon MeteoGroup
Idar-Oberstein, Allemagne (10618): Température de l'air & dewpoint: 12.11.2018 05:00:00 - 18.11.2018 05:00:00 (CET)Idar-Oberstein, Allemagne (10618): Vitesse du vent & gusts: 12.11.2018 05:00:00 - 18.11.2018 05:00:00 (CET)Idar-Oberstein, Allemagne (10618): Direction du vent: 12.11.2018 05:00:00 - 18.11.2018 05:00:00 (CET)Idar-Oberstein, Allemagne (10618): reduced air pressure: 12.11.2018 05:00:00 - 18.11.2018 05:00:00 (CET)Idar-Oberstein, Allemagne (10618): visibility: 12.11.2018 05:00:00 - 18.11.2018 05:00:00 (CET)
Date & Time tt [°C] td [°C] ff [km/h] ff [knt] fx [km/h] fx [knt] dd ppp [hPa] vv [km]
18.11.2018 05:00:00 0,8 -3,7 18 10 - - ENE 1028,4 20
18.11.2018 04:00:00 0,9 -3,4 22 12 - - ENE 1028,4 20
18.11.2018 03:00:00 0,9 -3,0 18 10 - - ENE 1028,6 20
18.11.2018 02:00:00 1,3 -2,8 22 12 - - ENE 1028,9 20
18.11.2018 01:00:00 1,7 -2,7 22 12 - - ENE 1029,1 20
18.11.2018 00:00:00 2,0 -2,5 25 14 - - ENE 1029,4 20
17.11.2018 23:00:00 2,6 -2,3 25 14 - - ENE 1029,3 20
17.11.2018 22:00:00 3,4 -2,3 25 14 - - ENE 1028,9 25
17.11.2018 21:00:00 3,9 -2,2 18 10 - - ENE 1028,5 25
17.11.2018 20:00:00 4,5 -2,2 14 8 - - ENE 1028,6 25
17.11.2018 19:00:00 5,0 -1,7 14 8 - - ENE 1028,2 30
17.11.2018 18:00:00 5,4 -1,0 14 8 - - ENE 1028,4 30
17.11.2018 17:00:00 6,1 -1,3 14 8 - - ENE 1028,1 40
17.11.2018 16:00:00 7,0 -0,5 14 8 - - ENE 1027,9 30
17.11.2018 15:00:00 7,1 -0,5 18 10 - - ENE 1027,7 25
17.11.2018 14:00:00 6,9 -0,2 18 10 - - ENE 1028,0 25
17.11.2018 13:00:00 5,9 0,1 22 12 - - ENE 1028,2 25
17.11.2018 12:00:00 4,9 0,6 14 8 - - ENE 1028,7 25
17.11.2018 11:00:00 3,5 0,5 18 10 - - ENE 1029,5 20
17.11.2018 10:00:00 1,7 0,3 18 10 - - ENE 1030,1 10
17.11.2018 09:00:00 0,8 -0,1 22 12 - - ENE 1030,3 4,0
17.11.2018 08:00:00 0,5 -0,2 18 10 - - ENE 1029,9 5
17.11.2018 07:00:00 0,4 -0,2 18 10 - - ENE 1029,5 5
17.11.2018 06:00:00 0,6 0,0 14 8 - - ENE 1029,2 3,5
17.11.2018 05:00:00 0,8 0,0 18 10 - - ENE 1029,3 8
17.11.2018 04:00:00 1,0 0,1 11 6 - - NE 1029,5 8
17.11.2018 03:00:00 1,3 0,2 18 10 - - NE 1029,7 8
17.11.2018 02:00:00 1,0 0,1 11 6 - - NNE 1029,7 8
17.11.2018 01:00:00 0,7 0,1 4 2 - - N 1029,8 9
17.11.2018 00:00:00 1,2 0,5 7 4 - - NNE 1029,8 9
16.11.2018 23:00:00 1,5 0,6 7 4 - - NNW 1029,9 9
16.11.2018 22:00:00 2,0 1,3 4 2 - - NE 1030,1 15
16.11.2018 21:00:00 2,2 1,3 4 2 - - NNE 1029,9 15
16.11.2018 20:00:00 2,4 1,5 7 4 - - E 1030,0 15
16.11.2018 19:00:00 2,8 1,6 4 2 - - WNW 1029,4 15
16.11.2018 18:00:00 4,2 2,0 4 2 - - N 1028,9 15
16.11.2018 17:00:00 5,0 2,4 7 4 - - ENE 1028,6 15
16.11.2018 16:00:00 6,2 2,5 14 8 - - NE 1028,5 12
16.11.2018 15:00:00 7,0 3,3 14 8 - - NE 1028,5 10
16.11.2018 14:00:00 6,3 4,2 11 6 - - NE 1028,7 4,0
16.11.2018 13:00:00 4,5 4,0 14 8 - - NE 1029,2 0,9
16.11.2018 12:00:00 3,8 3,8 14 8 - - NE 1029,8 0,9
16.11.2018 11:00:00 4,3 4,2 11 6 - - ENE 1029,8 0,9
16.11.2018 10:00:00 3,8 3,8 11 6 - - ENE 1030,0 0,8
16.11.2018 09:00:00 3,6 3,6 11 6 - - ENE 1029,7 0,8
16.11.2018 08:00:00 3,4 3,4 7 4 - - ENE 1029,2 0,3
16.11.2018 07:00:00 3,3 3,3 7 4 - - ENE 1028,7 0,7
16.11.2018 06:00:00 3,2 3,2 11 6 - - ENE 1028,8 0,5
16.11.2018 05:00:00 3,3 3,3 7 4 - - E 1028,5 0,1
16.11.2018 04:00:00 3,1 3,1 7 4 - - ENE 1028,6 0,1
16.11.2018 03:00:00 3,0 3,0 11 6 - - ENE 1028,7 0,1
16.11.2018 02:00:00 3,2 3,2 11 6 - - E 1028,7 0,5
16.11.2018 01:00:00 3,5 3,5 7 4 - - N 1028,6 0,5
16.11.2018 00:00:00 3,4 3,4 11 6 - - ENE 1028,5 0,4
15.11.2018 23:00:00 3,3 3,3 11 6 - - E 1028,3 0,3
15.11.2018 22:00:00 3,5 3,5 11 6 - - E 1028,3 0,1
15.11.2018 21:00:00 3,7 3,7 7 4 - - E 1028,0 0,1
15.11.2018 20:00:00 3,9 3,9 7 4 - - N 1028,0 0,1
15.11.2018 19:00:00 4,0 4,0 11 6 - - ENE 1027,8 0,1
15.11.2018 18:00:00 4,1 4,1 7 4 - - E 1027,4 0,1
15.11.2018 17:00:00 4,3 4,3 11 6 - - ENE 1027,5 0,1
15.11.2018 16:00:00 4,4 4,3 11 6 - - E 1027,7 0,2
15.11.2018 15:00:00 4,5 4,5 11 6 - - NE 1027,6 0,2
15.11.2018 14:00:00 4,7 4,7 11 6 - - ENE 1027,6 0,2
15.11.2018 13:00:00 4,4 4,4 11 6 - - ENE 1028,0 0,2
15.11.2018 12:00:00 4,6 4,6 11 6 - - NE 1028,2 0,2
15.11.2018 11:00:00 4,4 4,4 11 6 - - ENE 1028,4 0,8
15.11.2018 10:00:00 4,3 4,3 7 4 - - E 1028,4 0,6
15.11.2018 09:00:00 4,1 4,1 7 4 - - ENE 1028,3 0,4
15.11.2018 08:00:00 4,2 4,2 4 2 - - N 1028,1 0,2
15.11.2018 07:00:00 4,0 4,0 4 2 - - N 1028,1 0,5
15.11.2018 06:00:00 4,0 4,0 7 4 - - N 1028,1 0,6
15.11.2018 05:00:00 4,1 4,0 4 2 - - ENE 1028,1 0,6
15.11.2018 04:00:00 4,4 4,4 7 4 - - E 1028,1 0,6
15.11.2018 03:00:00 4,4 4,4 7 4 - - E 1028,4 0,6
15.11.2018 02:00:00 4,4 4,4 7 4 - - E 1028,5 0,5
15.11.2018 01:00:00 4,8 4,8 7 4 - - ENE 1028,6 0,1
15.11.2018 00:00:00 4,4 4,4 4 2 - - ENE 1028,5 0,1
14.11.2018 23:00:00 4,2 4,2 4 2 - - ESE 1028,5 0,1
14.11.2018 22:00:00 4,1 4,1 4 2 - - SE 1028,8 0,1
14.11.2018 21:00:00 4,5 4,5 4 2 - - SSW 1028,9 0,1
14.11.2018 20:00:00 4,5 4,5 4 2 - - E 1029,1 0,1
14.11.2018 19:00:00 4,6 4,6 7 4 - - NE 1029,2 0,1
14.11.2018 18:00:00 4,7 4,7 7 4 - - NE 1029,3 0,1
14.11.2018 17:00:00 5,1 5,1 7 4 - - NE 1029,3 0,1
14.11.2018 16:00:00 5,3 5,3 7 4 - - NE 1029,3 0,1
14.11.2018 15:00:00 5,6 5,6 7 4 - - NE 1029,3 0,1
14.11.2018 14:00:00 5,4 5,4 11 6 - - NE 1029,5 0,1
14.11.2018 13:00:00 4,3 4,3 11 6 - - ENE 1030,1 0,1
14.11.2018 12:00:00 3,6 3,6 7 4 - - ENE 1030,7 0,1
14.11.2018 11:00:00 3,2 3,2 4 2 - - NE 1031,3 0,1
14.11.2018 10:00:00 2,8 2,8 4 2 - - E 1031,5 0,1
14.11.2018 09:00:00 1,6 1,6 7 4 - - SW 1031,7 0,1
14.11.2018 08:00:00 1,5 1,5 4 2 - - S 1031,7 0,1
14.11.2018 07:00:00 1,3 1,3 7 4 - - SW 1031,9 0,1
14.11.2018 06:00:00 1,5 1,4 4 2 - - N 1032,1 0,2
14.11.2018 05:00:00 1,5 1,5 4 2 - - SW 1032,2 0,1
14.11.2018 04:00:00 1,6 1,5 7 4 - - SW 1032,4 0,1
14.11.2018 03:00:00 2,0 1,9 7 4 - - SW 1032,8 0,1
14.11.2018 02:00:00 2,0 1,9 7 4 - - SW 1032,8 0,1
14.11.2018 01:00:00 2,6 2,4 4 2 - - N 1032,6 0,6
14.11.2018 00:00:00 3,9 3,8 4 2 - - N 1032,3 8
13.11.2018 23:00:00 4,9 4,5 4 2 - - N 1032,0 15
13.11.2018 22:00:00 5,5 5,1 7 4 - - N 1031,9 15
13.11.2018 21:00:00 6,6 5,4 7 4 - - SSW 1031,4 20
13.11.2018 20:00:00 7,4 5,6 14 8 - - SSW 1030,8 20
13.11.2018 19:00:00 7,2 6,0 11 6 - - SSW 1030,7 30
13.11.2018 18:00:00 8,3 6,3 11 6 - - SW 1029,8 30
13.11.2018 17:00:00 - - - - - - - - -
13.11.2018 16:00:00 10,2 6,7 18 10 - - SW 1028,1 30
13.11.2018 15:00:00 10,6 7,1 18 10 - - SW 1027,7 30
13.11.2018 14:00:00 10,2 7,5 18 10 - - SW 1027,5 30
13.11.2018 13:00:00 9,3 7,9 14 8 - - SW 1027,3 15
13.11.2018 12:00:00 9,5 8,3 18 10 - - SW 1026,8 15
13.11.2018 11:00:00 9,5 8,4 14 8 - - SW 1026,7 15
13.11.2018 10:00:00 9,1 8,2 14 8 - - SSW 1026,0 20
13.11.2018 09:00:00 8,9 8,4 11 6 - - SW 1025,4 8
13.11.2018 08:00:00 9,4 8,3 18 10 - - SSW 1024,2 8
13.11.2018 07:00:00 9,6 8,6 11 6 - - SSW 1023,0 10
13.11.2018 06:00:00 9,9 9,2 11 6 - - S 1022,6 6
13.11.2018 05:00:00 9,8 9,3 11 6 - - SW 1022,5 10
13.11.2018 04:00:00 9,8 9,4 11 6 - - SSW 1022,0 10
13.11.2018 03:00:00 10,3 9,7 14 8 - - SSW 1021,6 10
13.11.2018 02:00:00 10,5 9,9 7 4 - - SSW 1021,1 15
13.11.2018 01:00:00 10,9 10,3 11 6 - - SSW 1020,4 12
13.11.2018 00:00:00 11,1 10,6 11 6 - - SSW 1020,2 12
12.11.2018 23:00:00 11,4 10,9 11 6 - - SSW 1019,9 10
12.11.2018 22:00:00 12,1 11,6 11 6 - - SW 1019,0 10
12.11.2018 21:00:00 12,3 11,8 11 6 - - SW 1018,6 8
12.11.2018 20:00:00 12,9 12,2 14 8 - - SSW 1018,5 15
12.11.2018 19:00:00 13,1 12,2 11 6 - - SSW 1017,8 10
12.11.2018 18:00:00 13,1 12,5 11 6 - - SSW 1017,4 10
12.11.2018 17:00:00 12,9 12,3 14 8 65 35 SSW 1016,8 15
12.11.2018 16:00:00 16,9 11,0 11 6 - - SSW 1014,8 50
12.11.2018 15:00:00 17,4 10,7 18 10 - - SSW 1014,4 50
12.11.2018 14:00:00 17,8 10,6 18 10 - - SSW 1014,1 50
12.11.2018 13:00:00 16,6 10,0 14 8 - - SSW 1014,3 50
12.11.2018 12:00:00 15,8 9,6 18 10 - - SW 1014,7 40
12.11.2018 11:00:00 14,8 9,3 7 4 - - SSW 1014,7 40
12.11.2018 10:00:00 13,3 8,9 4 2 - - SSW 1014,7 40
12.11.2018 09:00:00 11,9 9,5 7 4 - - N 1014,6 40
12.11.2018 08:00:00 9,9 9,7 4 2 - - SW 1014,6 35
12.11.2018 07:00:00 9,1 9,1 4 2 - - N 1014,1 25
12.11.2018 06:00:00 9,0 9,0 4 2 - - NNW 1013,9 0,2
12.11.2018 05:00:00 9,0 9,0 4 2 - - NE 1014,0 0,3

tt = Température de l'air
td = dewpoint
ff = Vitesse du vent
fx = gusts
dd = Direction du vent
ppp = reduced air pressure
vv = visibility

stations d'obs. à proximité